Azamgarh, India

10:35 PM IST on April 27, 2015 (GMT +0530)
Varanasi | | Change Station
CLOSE
Current Station
Airport
Location: Varanasi - Babatpur,
Elevation: 266 ft
Nearby Weather Stations

Elev 266 ft 25.45 °N, 82.86 °E | Updated 35 minutes ago

Haze
Haze
84 °F
Feels Like 88 °F
N
6
Wind Variable Wind from ENE

Today
High -- | Low -- °F
--% Chance of Precip.
Yesterday
High -- | Low -- °F
Precip. -- in
5:23 AM 6:26 PM
Waxing Gibbous, 66% visible
Pressure 29.77 in
Visibility 2.2 miles
Clouds
Heat Index 88 °F
Dew Point 70 °F
Humidity 62%
Rainfall 0.00 in
Snow Depth Not available.
UV Not available.
Pollen Not available.
Air Quality Not available.
Flu Activity Not available.
METAR VIBN 271630Z 06005KT 3500 HZ NSC 29/21 Q1008

More Conditions Fewer Conditions

Pressure 29.77 in
Visibility 2.2 miles
Clouds
Heat Index 88 °F
Dew Point 70 °F
Humidity 62%
Rainfall 0.00 in
Snow Depth Not available.
UV Not available.
Pollen Not available.
Air Quality Not available.
Flu Activity Not available.
METAR VIBN 271630Z 06005KT 3500 HZ NSC 29/21 Q1008

More Conditions Fewer Conditions

10-Day Weather Forecast

Almanac

Astronomy

Apr. 27, 2015 Rise Set
Actual Time
Civil Twilight
Nautical Twilight
Astronomical Twilight
Moon
Length of Visible Light
Length of Day
Tomorrow will be .
, % of the Moon is Illuminated

Today's Extremes

Country Highs Country Lows

Community

WunderPhotos

Upload Photos

1,817,341 photos uploaded!

WunderBlogs® & News

Nearby

Air Quality

  Air Quality AQ Index Pollutant
Not available.

Snow Depth

Station Depth Elevation

Earthquake Activity

City Distance Mag. Time & Date
Minimum magnitude displayed is 2.5.

Coastal Water Temperatures

Place Temperature

Stations

Nearby Weather Stations

Station Location Temp. Windchill Dew Point Humidity Wind Precip. Elev Updated Type